• MPC Preparation (Info)

  • MPEC 2000-C15 : 2000 BK19

    The following Minor Planet Electronic Circular may be linked-to from your own Web pages, but must not otherwise be redistributed electronically.

    A form allowing access to any MPEC is at the bottom of this page.


    Read MPEC 2000-C14 Read MPEC 2000-C16


    M.P.E.C. 2000-C15                                Issued 2000 Feb. 3, 17:43 UT
    
         The Minor Planet Electronic Circulars contain information on unusual
             minor planets and routine data on comets.  They are published
       on behalf of Commission 20 of the International Astronomical Union by the
              Minor Planet Center, Smithsonian Astrophysical Observatory,
                              Cambridge, MA 02138, U.S.A.
    
                 Prepared using the Tamkin Foundation Computer Network
    
                 BMARSDEN@CFA.HARVARD.EDU or GWILLIAMS@CFA.HARVARD.EDU
              URL http://cfa-www.harvard.edu/iau/mpc.html  ISSN 1523-6714
    
                                       2000 BK19
    
    Observations:
         K00B19K* C2000 01 30.31042 09 01 58.16 +20 49 36.2          17.4        704
         K00B19K  C2000 01 30.32531 09 02 01.40 +20 45 09.5          18.1        704
         K00B19K  C2000 01 30.34010 09 02 04.59 +20 40 44.2          18.4        704
         K00B19K  C2000 01 31.15092 09 05 51.74 +16 28 29.2          16.4        704
         K00B19K  C2000 01 31.16589 09 05 55.43 +16 23 42.6          17.9        704
         K00B19K  C2000 01 31.19596 09 06 02.66 +16 14 03.6          16.8        704
         K00B19K  C2000 01 31.21103 09 06 06.22 +16 09 12.1          17.0        704
         K00B19K  C2000 02 01.85698 09 13 47.14 +06 39 11.0          16.8 R      046
         K00B19K  C2000 02 01.85758 09 13 47.24 +06 38 57.8                      046
         K00B19K  C2000 02 01.85847 09 13 47.49 +06 38 39.0                      046
         K00B19K  C2000 02 01.85932 09 13 47.65 +06 38 20.1                      046
         K00B19K  C2000 02 01.85977 09 13 47.80 +06 38 09.5                      046
         K00B19K  C2000 02 01.86097 09 13 48.12 +06 37 43.7                      046
         K00B19K  C2000 02 02.04289 09 14 33.05 +05 31 00.3          16.5 R      118
         K00B19K  C2000 02 02.04391 09 14 33.30 +05 30 37.8                      118
         K00B19K  C2000 02 02.04544 09 14 33.71 +05 30 04.0                      118
         K00B19K  C2000 02 02.20630 09 15 26.78 +04 30 46.9          17.7 V      739
         K00B19K  C2000 02 02.20748 09 15 26.97 +04 30 21.6                      739
         K00B19K  C2000 02 02.20821 09 15 27.12 +04 30 09.3          17.7 V      739
         K00B19K  C2000 02 02.24520 09 15 37.95 +04 16 33.1          17.3        704
         K00B19K  C2000 02 02.25960 09 15 41.44 +04 11 11.8          17.2        704
         K00B19K  C2000 02 02.27404 09 15 44.92 +04 05 49.1          17.1        704
         K00B19K  C2000 02 02.28844 09 15 48.33 +04 00 27.2          16.7        704
         K00B19K  C2000 02 02.29898 09 15 51.47 +03 56 31.4          16.6 R      703
         K00B19K  C2000 02 02.30285 09 15 51.77 +03 55 04.5          17.0        704
         K00B19K  C2000 02 02.31087 09 15 54.31 +03 52 05.4          16.6 R      703
         K00B19K  C2000 02 02.32282 09 15 57.15 +03 47 37.8          16.5 R      703
         K00B19K  C2000 02 02.33473 09 15 59.97 +03 43 10.1          16.5 R      703
         K00B19K  C2000 02 02.33932 09 16 02.24 +03 41 25.5                      670
         K00B19K 1C2000 02 02.37549 09 16 09.57 +03 27 59.6          16.4 R      696
         K00B19K 1C2000 02 02.38068 09 16 10.84 +03 26 03.1                      696
         K00B19K  C2000 02 02.40559 09 16 18.03 +03 16 37.6                      670
         K00B19K WC2000 02 02.45454 09 16 30.05 +02 58 14.7                      670
         K00B19K  C2000 02 02.45731 09 16 42.65 +02 59 53.1          17.6 R      422
         K00B19K  C2000 02 02.45800 09 16 42.90 +02 59 37.7          17.7 R      422
         K00B19K  C2000 02 02.45949 09 16 43.20 +02 59 03.5          17.4 R      422
         K00B19K  C2000 02 02.46147 09 16 43.73 +02 58 19.3          17.5 R      422
         K00B19K  C2000 02 02.93190 09 18 56.83 -00 03 00.4                      557
         K00B19K  C2000 02 02.93237 09 18 56.96 -00 03 11.5          16.9 V      557
         K00B19K  C2000 02 03.37289 09 21 04.53 -02 51 32.7                      670
         K00B19K  C2000 02 03.43020 09 21 18.78 -03 13 33.7                      670
    
    Observer details:
    046 Klet.  Observers M. Tichy, Z. Moravec.  0.57-m f/5.2 reflector + CCD.
    118 Modra.  Observers A. Galad, P. Koleny.  0.6-m f/5.5 reflector + CCD.
    422 Loomberah.  Observer G. J. Garradd.  0.45-m f/5.4 reflector + CCD.
    557 Ondrejov.  Observer P. Kusnirak.  0.65-m f/3.6 reflector + CCD.
    670 Camarillo.  Observer J. E. Rogers.  0.30-m f/6.7 Helin Telescope + CCD.
    696 Whipple Observatory, Mt. Hopkins.  Observer C. W. Hergenrother.  1.2-m
        reflector + CCD.
    703 Catalina Sky Survey.  Observers S. M. Larson.  0.41-m f/3 Schmidt + CCD.
    704 Lincoln Laboratory ETS, New Mexico.  Observers M. Blythe, F. Shelly,
        M. Bezpalko, M. Elowitz, R. Huber.  Measurers J. Stuart, H. Viggh,
        R. Sayer, J. B. Evans.  1.0-m f/2.15 reflector + CCD.
    739 Sunflower Observatory, Olathe.  Observer L. Robinson.  0.25-m
        Schmidt-Cassegrain + CCD.
    
    Orbital elements:
    2000 BK19
    Epoch 2000 Jan. 17.0 TT = JDT 2451560.5                 Williams
    M 351.64305              (2000.0)            P               Q
    n   0.26368460     Peri.  200.65688     -0.86914511     -0.45536898
    a   2.4084975      Node   310.73994     +0.48193221     -0.69225906
    e   0.5750285      Incl.   14.75261     +0.11103211     -0.55983612
    P   3.74           H   22.4           G   0.15
    From 37 observations 2000 Jan. 30-Feb. 3.
    
    Ephemeris:
    2000 BK19                a,e,i = 2.41, 0.58, 15                  q = 1.0235
    Date    TT    R. A. (2000) Decl.     Delta      r     Elong.  Phase     V
    2000 01 27    08 47.99   +34 33.3    0.079    1.061   163.9    14.9    17.8
    2000 02 01    09 09.66   +11 45.9    0.061    1.046   173.5     6.2    16.9
    2000 02 06    09 34.55   -19 26.7    0.059    1.035   144.4    33.7    17.7
    2000 02 11    10 02.18   -44 01.5    0.074    1.027   121.3    55.1    18.8
    2000 02 16    10 31.57   -57 50.3    0.097    1.024   109.1    65.7    19.7
    2000 02 21    11 01.30   -65 19.9    0.124    1.024   103.3    69.9    20.4
    2000 02 26    11 29.71   -69 34.6    0.152    1.029   100.8    70.9    20.9
    2000 03 02    11 55.4    -72 02.4    0.179    1.038   100.1    70.1    21.2
    2000 03 07    12 17.3    -73 25.9    0.206    1.050   100.6    68.2    21.5
    2000 03 12    12 35.2    -74 07.1    0.232    1.066   101.9    65.8    21.7
    2000 03 17    12 49.1    -74 18.0    0.257    1.086   103.8    62.9    21.9
    2000 03 22    12 59.3    -74 05.4    0.281    1.108   106.1    59.8    22.0
    2000 03 27    13 06.3    -73 32.6    0.304    1.133   108.8    56.5    22.1
    
    Gareth V. Williams           (C) Copyright 2000 MPC           M.P.E.C. 2000-C15
    

    Read MPEC 2000-C14 Read MPEC 2000-C16


    MPEC number:

    Enter an MPEC number in one of the following forms:

    • 1997-B01 (the full form)
    • J97B01 (the packed version of the full form)
    • B01 (the abbreviated form)